Date,TemperatureHighF,TemperatureAvgF,TemperatureLowF,DewpointHighF,DewpointAvgF,DewpointLowF,HumidityHigh,HumidityAvg,HumidityLow,PressureMaxIn,PressureMinIn,WindSpeedMaxMPH,WindSpeedAvgMPH,GustSpeedMaxMPH,PrecipitationSumIn
2013-1-1,47.8,41.8,37.3,47.0,38.8,35.4,97,89,76,30.03,29.49,12,2,12,0.10
2013-1-2,50.8,43.4,35.8,50.3,42.4,34.4,98,96,91,30.32,30.03,12,2,12,0.01
2013-1-3,52.0,50.4,48.6,50.2,49.1,47.9,98,95,93,30.60,30.32,12,3,12,0.00
2013-1-4,50.4,48.7,46.0,48.5,46.2,44.4,97,91,85,30.64,30.58,12,3,12,0.00
2013-1-5,50.6,47.8,44.5,49.0,46.6,43.6,99,95,90,30.59,30.50,12,2,12,0.00
2013-1-6,47.1,45.6,43.8,46.5,45.1,43.1,99,98,96,30.51,30.38,10,1,10,0.01
2013-1-7,48.0,46.2,44.4,46.5,45.1,43.3,98,96,93,30.38,30.23,9,2,9,0.00
2013-1-8,51.4,49.3,46.9,48.9,47.4,45.3,98,93,88,30.25,30.17,11,2,11,0.04
2013-1-9,48.5,44.4,37.0,48.2,42.6,35.7,99,93,79,30.18,30.06,5,0,5,0.07
2013-1-10,37.8,35.2,31.3,36.8,34.4,30.5,99,97,95,30.06,29.92,4,0,4,0.00
2013-1-11,45.7,37.1,33.2,41.2,35.8,32.4,98,95,83,30.08,29.98,6,0,6,0.00
2013-1-12,40.9,37.8,34.2,36.0,33.8,29.6,98,86,64,29.98,29.85,22,4,22,0.03
2013-1-13,37.6,34.5,31.2,33.5,30.4,27.9,89,85,78,30.14,29.96,10,0,10,0.00
2013-1-14,36.0,33.2,31.5,35.5,32.0,29.2,99,95,88,30.09,29.61,9,1,9,0.02
2013-1-15,36.9,33.6,29.4,33.6,31.7,28.1,96,93,86,29.86,29.61,10,0,10,0.09
2013-1-16,31.0,28.8,26.8,30.1,28.0,25.4,98,97,94,30.02,29.83,7,0,7,0.00
2013-1-17,37.9,32.6,25.9,33.1,29.4,24.2,96,88,76,30.08,29.88,10,1,10,0.04
2013-1-18,35.7,30.9,28.3,30.3,28.6,26.6,97,91,79,29.88,29.43,19,6,19,0.01
2013-1-19,33.0,31.8,30.8,31.8,29.9,27.1,97,93,86,29.48,29.40,13,1,13,0.00
2013-1-20,32.0,30.6,29.3,31.0,29.1,26.6,97,94,85,29.47,29.27,10,0,10,0.00
2013-1-21,33.9,31.8,29.7,32.2,30.5,28.4,98,95,91,29.49,29.25,4,0,4,0.03
2013-1-22,36.6,33.1,28.1,35.3,31.3,26.4,98,93,83,29.69,29.49,17,3,17,0.10
2013-1-23,35.9,34.6,33.6,33.5,32.1,30.7,95,91,88,29.81,29.69,17,2,17,0.06
2013-1-24,35.9,34.4,31.4,32.5,30.8,28.5,94,87,78,30.14,29.80,11,0,12,0.01
2013-1-25,37.7,34.3,30.5,35.8,31.0,28.2,95,87,81,30.12,29.56,20,3,20,0.05
2013-1-26,45.4,40.9,35.8,43.9,38.9,34.8,98,93,83,29.82,29.53,15,3,15,0.24
2013-1-27,50.1,47.9,45.2,49.3,43.1,32.8,98,85,55,29.53,29.26,25,7,25,0.25
2013-1-28,51.2,43.0,35.5,48.8,40.5,33.9,97,91,84,29.81,29.51,17,5,24,0.12
2013-1-29,56.1,52.5,48.5,53.9,50.7,46.2,99,94,85,29.64,29.52,23,6,23,0.05
2013-1-30,54.0,49.1,43.7,53.2,44.2,39.0,98,84,64,30.02,29.49,32,8,32,0.21
2013-1-31,50.4,47.4,43.8,45.2,41.5,38.8,90,80,67,30.03,29.77,25,7,25,0.03
2013-2-1,45.3,41.9,38.8,42.2,39.5,36.7,97,92,80,29.84,29.45,14,2,14,0.17
2013-2-2,41.7,37.9,31.4,38.5,32.1,26.8,92,79,66,30.23,29.59,11,1,11,0.00
2013-2-3,48.3,39.9,30.3,46.4,37.4,26.6,95,91,83,30.24,29.89,18,2,18,0.00
2013-2-4,50.2,47.4,42.2,47.3,40.3,33.5,93,77,58,29.93,29.69,23,6,23,0.01
2013-2-5,43.4,39.5,34.8,39.4,33.4,27.7,94,79,57,29.69,29.31,23,6,23,0.13
2013-2-6,42.9,39.5,34.9,39.4,34.4,28.9,93,82,70,30.04,29.35,15,2,15,0.05
2013-2-7,41.1,36.8,33.0,35.3,31.3,27.3,96,81,71,30.09,29.99,10,1,10,0.06
2013-2-8,42.1,36.9,32.2,37.2,33.7,30.9,97,88,73,30.15,30.02,10,1,10,0.01
2013-2-9,38.6,36.9,34.1,37.1,35.1,32.1,96,93,87,30.15,29.85,11,1,11,0.02
2013-2-10,40.9,37.8,33.1,40.2,37.1,32.6,98,97,96,29.85,29.27,21,6,21,0.43
2013-2-11,34.0,33.5,33.0,33.5,32.9,32.5,99,98,97,29.77,29.29,14,2,14,0.11
2013-2-12,35.5,33.8,32.7,32.8,31.1,29.6,97,90,84,30.13,29.77,6,0,6,0.04
2013-2-13,39.0,35.2,33.3,38.0,30.9,26.2,96,84,69,30.20,29.97,22,3,22,0.09
2013-2-14,51.0,45.3,39.1,46.9,42.3,37.7,98,89,73,29.98,29.72,16,2,16,0.10
2013-2-15,51.7,43.0,36.6,41.8,38.3,35.3,96,84,65,30.20,29.96,10,1,10,0.00
2013-2-16,52.2,44.5,39.1,41.8,37.8,33.5,93,78,52,30.24,30.19,8,0,8,0.00
2013-2-17,52.4,40.8,35.3,41.9,36.6,32.7,94,86,50,30.21,30.10,16,3,16,0.00
2013-2-18,47.4,40.0,35.3,38.8,36.4,33.7,96,87,70,30.14,30.09,14,3,14,0.00
2013-2-19,52.4,40.6,32.8,39.1,35.6,31.8,98,84,53,30.13,30.05,6,0,6,0.01
2013-2-20,41.6,37.0,34.2,38.5,32.6,27.9,98,84,70,30.26,30.09,22,5,22,0.03
2013-2-21,35.6,34.3,32.9,28.5,25.4,22.3,76,69,63,30.26,30.17,18,5,18,0.00
2013-2-22,35.4,33.3,31.8,27.2,25.0,22.3,79,71,65,30.17,30.10,13,1,13,0.00
2013-2-23,36.4,33.1,31.9,30.7,27.9,25.1,89,81,64,30.15,30.09,12,0,12,0.00
2013-2-24,35.7,33.9,32.6,30.6,29.3,28.1,91,83,77,30.28,30.19,6,0,8,0.00
2013-2-25,39.4,37.1,34.1,36.6,34.5,30.0,93,90,84,30.38,30.25,19,1,19,0.00
2013-2-26,40.4,38.5,36.4,38.9,37.3,34.9,97,95,92,30.56,30.38,11,1,11,0.02
2013-2-27,43.9,37.9,35.1,36.5,35.0,33.2,97,90,74,30.57,30.48,10,1,10,0.01
2013-2-28,48.8,39.6,34.7,38.8,35.2,32.6,94,85,62,30.48,30.34,13,1,13,0.00
2013-3-1,43.7,40.0,35.9,41.1,35.6,31.8,97,85,68,30.41,30.35,11,1,12,0.01
2013-3-2,41.2,37.3,33.7,34.1,32.4,30.9,92,82,74,30.41,30.27,9,0,9,0.00
2013-3-3,46.4,39.5,33.3,37.9,34.8,30.7,92,84,69,30.28,30.10,16,2,16,0.00
2013-3-4,52.1,41.2,35.0,38.2,35.2,32.8,93,80,51,30.10,29.73,17,4,17,0.00
2013-3-5,63.6,48.3,37.9,46.0,40.8,35.9,95,77,50,29.73,29.58,11,1,11,0.00
2013-3-6,55.5,50.1,46.4,45.5,43.0,40.6,90,77,66,29.58,29.50,11,1,11,0.02
2013-3-7,49.8,47.5,45.2,48.7,46.5,43.2,99,96,90,29.51,29.37,12,2,12,0.17
2013-3-8,49.9,48.0,45.1,49.6,47.7,44.6,99,99,98,29.54,29.38,8,1,8,0.21
2013-3-9,45.2,41.7,37.3,44.7,40.5,35.2,98,95,91,29.67,29.53,6,0,6,0.06
2013-3-10,38.0,35.6,32.9,35.1,32.6,28.9,94,89,83,29.74,29.65,15,2,15,0.00
2013-3-11,33.5,31.1,28.1,29.1,24.1,18.8,86,75,56,29.77,29.72,22,4,22,0.00
2013-3-12,40.0,33.3,27.6,33.0,25.0,18.8,90,72,50,29.83,29.74,18,2,18,0.00
2013-3-13,44.1,36.8,31.6,33.3,30.6,27.3,93,79,55,29.94,29.77,11,0,11,0.00
2013-3-14,46.0,36.9,29.1,32.7,28.2,24.4,95,73,45,30.02,29.91,8,1,8,0.02
2013-3-15,47.2,42.0,36.6,44.2,39.0,28.4,96,89,69,29.91,29.55,16,4,16,0.29
2013-3-16,48.4,43.8,40.8,43.7,41.4,38.8,96,91,81,29.54,29.26,20,5,21,0.28
2013-3-17,45.6,39.9,33.8,43.2,38.3,32.9,97,94,88,29.30,29.15,16,2,16,0.19
2013-3-18,48.4,38.2,32.1,43.3,36.9,31.4,98,95,78,29.35,29.21,9,0,9,0.30
2013-3-19,49.7,40.1,35.4,41.4,36.9,33.8,97,89,64,29.51,29.35,9,1,9,0.00
2013-3-20,44.1,38.3,35.0,39.7,36.2,33.7,97,92,83,30.00,29.51,8,0,8,0.00
2013-3-21,43.6,38.5,33.0,36.3,33.6,31.0,94,83,71,30.02,29.91,25,5,25,0.02
2013-3-22,41.8,38.0,35.5,36.0,34.5,32.6,94,87,78,29.92,29.74,29,9,29,0.22
2013-3-23,36.7,33.9,33.2,35.3,33.0,32.2,97,96,94,29.88,29.75,22,5,22,0.15
2013-3-24,33.7,31.8,30.5,32.2,28.5,25.2,96,88,71,29.95,29.86,20,2,20,0.00
2013-3-25,33.9,33.0,31.7,28.7,26.6,24.8,84,77,71,29.97,29.92,18,2,18,0.01
2013-3-26,34.7,33.3,31.5,28.4,26.4,24.7,87,76,69,29.95,29.88,15,2,15,0.00
2013-3-27,40.7,34.5,30.5,28.5,26.7,25.0,88,73,59,29.89,29.85,13,1,13,0.00
2013-3-28,39.9,35.1,30.1,31.2,27.7,25.1,92,75,58,29.94,29.83,16,1,16,0.00
2013-3-29,42.9,36.1,30.2,29.3,26.3,22.7,83,69,45,29.91,29.78,17,2,17,0.00
2013-3-30,42.2,36.5,32.4,33.4,29.5,27.3,85,76,62,29.97,29.77,12,1,12,0.00
2013-3-31,44.7,36.2,29.8,30.4,27.3,23.5,88,71,47,29.97,29.89,15,2,15,0.00
2013-4-1,43.2,36.5,32.3,31.3,28.1,24.4,85,72,53,29.89,29.83,23,3,23,0.00
2013-4-2,46.4,38.0,30.7,32.0,25.3,17.6,89,63,34,30.06,29.88,22,2,22,0.00
2013-4-3,41.7,36.5,32.2,31.5,27.4,24.0,90,71,53,30.07,29.99,20,3,20,0.01
2013-4-4,37.9,35.5,32.9,34.0,29.5,23.8,91,79,58,29.99,29.92,14,1,15,0.01
2013-4-5,46.8,39.3,34.4,32.9,28.7,22.7,87,68,40,30.11,29.90,17,2,21,0.01
2013-4-6,53.4,40.9,31.9,33.8,29.9,25.8,92,68,39,30.28,30.11,9,0,9,0.00
2013-4-7,54.3,42.4,32.3,33.9,29.3,19.7,89,63,28,30.27,29.88,13,2,13,0.00
2013-4-8,53.1,43.2,38.1,35.3,32.3,26.5,85,67,41,29.88,29.55,24,5,24,0.00
2013-4-9,50.2,42.9,36.8,42.0,38.8,34.4,93,86,69,29.55,29.39,15,3,15,0.02
2013-4-10,56.6,44.4,36.4,42.3,38.7,34.6,96,82,53,29.71,29.43,15,2,15,0.18
2013-4-11,53.7,45.9,41.9,48.6,43.8,40.8,97,92,80,29.49,29.36,17,2,17,0.07
2013-4-12,54.7,47.5,43.1,47.7,45.3,42.0,98,92,73,29.73,29.28,13,2,13,0.33
2013-4-13,53.9,47.9,39.5,51.7,46.0,38.5,98,93,73,29.90,29.73,19,3,19,0.16
2013-4-14,67.7,58.0,51.5,53.3,50.9,47.4,98,78,55,29.94,29.87,21,5,21,0.01
2013-4-15,60.9,54.4,49.5,50.3,47.7,45.5,90,79,66,30.05,29.92,17,4,17,0.00
2013-4-16,62.1,54.2,49.0,49.2,46.0,43.2,94,75,52,30.08,29.89,21,5,21,0.00
2013-4-17,65.2,55.8,48.2,52.8,49.8,45.3,97,81,61,30.08,29.75,23,5,23,0.00
2013-4-18,56.9,50.8,45.6,45.7,40.6,32.0,86,68,45,30.06,29.77,25,8,25,0.04
2013-4-19,55.4,48.3,42.0,44.0,40.0,36.5,89,74,50,30.50,30.06,12,2,12,0.00
2013-4-20,62.9,47.6,37.5,39.6,35.3,28.9,96,66,32,30.55,30.36,14,2,14,0.01
2013-4-21,60.2,47.2,35.1,41.6,35.8,31.6,93,67,38,30.36,30.02,12,2,12,0.00
2013-4-22,58.9,50.1,44.0,48.1,43.8,40.4,94,80,52,30.02,29.94,17,3,17,0.00
2013-4-23,69.9,57.5,48.7,51.0,48.8,46.7,96,75,49,30.21,29.97,11,2,11,0.00
2013-4-24,67.4,57.4,47.2,55.4,51.3,45.4,95,81,64,30.25,30.18,14,2,14,0.02
2013-4-25,71.7,59.6,52.3,57.3,52.2,48.2,97,79,49,30.24,30.01,18,3,18,0.01
2013-4-26,56.2,48.5,41.7,48.9,38.7,26.8,96,71,39,30.02,29.89,12,1,12,0.14
2013-4-27,51.9,43.5,37.7,40.2,36.7,32.5,91,77,53,30.10,29.88,11,1,11,0.01
2013-4-28,53.4,45.3,34.5,40.4,34.7,29.4,93,69,41,30.10,29.88,16,3,16,0.00
2013-4-29,58.6,49.8,43.8,43.9,38.2,33.7,94,66,41,30.16,29.87,13,3,13,0.04
2013-4-30,58.9,49.2,41.4,42.1,37.9,33.0,86,67,42,30.31,30.16,13,1,13,0.00
2013-5-1,62.9,49.1,37.8,42.0,36.0,29.6,96,66,32,30.31,30.17,10,1,10,0.00
2013-5-2,66.8,53.1,42.3,37.6,28.4,14.3,68,42,18,30.23,30.16,12,1,12,0.00
2013-5-3,67.5,54.7,42.4,45.7,39.8,34.6,78,59,34,30.18,30.03,14,2,14,0.00
2013-5-4,63.6,53.6,44.7,49.4,42.8,36.2,89,69,40,30.12,29.96,19,4,19,0.00
2013-5-5,67.0,55.9,43.3,51.5,47.2,40.5,91,73,54,30.19,30.12,9,1,9,0.00
2013-5-6,74.5,61.5,50.7,50.7,48.5,44.8,90,66,40,30.16,30.03,9,1,9,0.00
2013-5-7,75.5,61.5,50.0,47.3,44.7,41.5,75,56,35,30.08,29.86,7,2,16,0.00
2013-5-8,64.3,56.0,49.2,55.9,50.4,43.9,96,82,62,29.85,29.67,16,3,16,0.05
2013-5-9,58.7,50.5,43.6,48.1,43.1,38.3,95,77,50,29.83,29.65,30,6,30,0.05
2013-5-10,61.6,53.5,47.9,49.4,47.2,44.1,94,80,55,29.92,29.66,20,6,20,0.03
2013-5-11,55.9,48.1,41.9,49.8,43.8,40.5,95,85,65,29.91,29.77,17,4,17,0.23
2013-5-12,57.9,48.8,39.5,51.1,43.8,38.2,97,85,53,30.00,29.88,16,4,16,0.05
2013-5-13,58.7,51.9,43.6,50.6,42.8,34.2,97,73,41,29.89,29.78,23,5,23,0.04
2013-5-14,52.1,47.2,43.7,48.2,43.6,40.5,97,87,67,29.80,29.21,22,4,22,0.36
2013-5-15,57.7,47.3,42.3,46.0,41.6,38.1,92,81,56,29.54,29.12,25,4,25,0.02
2013-5-16,65.5,51.0,39.3,47.6,41.8,33.5,98,74,33,29.56,29.47,13,2,13,0.02
2013-5-17,53.9,49.5,46.1,46.1,44.3,43.1,93,83,71,29.80,29.56,9,0,9,0.00
2013-5-18,60.7,52.8,47.3,46.9,45.0,42.6,87,75,59,29.79,29.71,8,1,8,0.00
2013-5-19,68.5,56.5,47.8,50.9,47.9,44.5,89,74,53,29.89,29.77,11,0,11,0.00
2013-5-20,62.5,57.2,51.6,58.2,53.9,49.1,95,89,84,29.89,29.82,8,1,8,0.02
2013-5-21,60.4,55.5,51.7,56.6,50.7,47.2,91,84,73,30.07,29.89,11,1,11,0.00
2013-5-22,58.2,51.4,45.9,48.8,44.6,36.7,93,78,54,30.09,30.00,14,1,14,0.00
2013-5-23,52.7,45.7,41.7,43.4,38.2,32.9,90,75,53,30.00,29.88,13,1,13,0.04
2013-5-24,48.2,43.8,41.4,46.8,41.0,37.8,95,90,81,30.02,29.61,14,2,14,0.21
2013-5-25,60.2,50.4,41.3,44.0,40.5,37.1,96,72,44,30.17,30.03,8,0,8,0.00
2013-5-26,68.5,56.2,44.5,43.2,39.7,35.2,79,56,33,30.13,29.95,11,1,11,0.00
2013-5-27,64.7,54.2,42.2,45.5,40.3,26.5,89,62,26,29.95,29.62,21,3,21,0.00
2013-5-28,54.7,51.6,49.4,53.6,48.8,41.9,98,91,64,29.62,29.46,11,1,11,0.44
2013-5-29,54.1,50.6,46.4,52.7,49.2,45.6,97,95,87,29.76,29.55,7,0,7,0.02
2013-5-30,57.9,53.6,51.1,54.0,51.6,50.1,98,93,84,29.99,29.74,12,0,12,0.13
2013-5-31,71.2,59.8,51.2,57.4,52.5,48.8,93,78,56,30.11,29.99,8,0,8,0.00
2013-6-1,65.2,56.3,49.6,50.7,46.2,42.9,85,70,51,30.29,30.11,12,1,12,0.00
2013-6-2,65.5,56.5,47.1,46.4,43.9,41.2,89,65,43,30.43,30.29,9,0,9,0.00
2013-6-3,67.0,57.1,47.4,46.0,44.4,41.4,91,65,43,30.48,30.40,14,1,14,0.00
2013-6-4,69.5,56.9,44.6,49.6,44.5,39.1,90,65,41,30.42,30.22,13,1,13,0.00
2013-6-5,70.6,56.6,46.3,53.8,48.3,43.5,92,75,50,30.23,30.09,10,1,10,0.00
2013-6-6,72.8,58.4,46.4,53.6,48.5,43.9,91,72,48,30.19,30.13,17,1,17,0.00
2013-6-7,71.3,58.7,47.6,54.9,47.6,43.3,86,68,41,30.23,30.17,13,1,13,0.00
2013-6-8,64.5,54.8,47.3,48.8,46.5,44.2,90,75,55,30.22,30.08,17,1,17,0.00
2013-6-9,59.9,53.6,49.5,48.6,46.3,44.4,85,77,65,30.08,29.96,10,1,10,0.00
2013-6-10,63.0,54.5,49.8,47.0,45.0,42.9,79,71,56,30.00,29.95,8,1,11,0.00
2013-6-11,66.0,57.1,48.9,59.6,52.3,44.7,89,84,74,29.97,29.88,12,2,12,0.00
2013-6-12,62.2,59.3,57.0,59.4,56.1,52.6,96,89,78,29.89,29.79,17,5,17,0.08
2013-6-13,62.9,57.3,52.5,56.2,51.6,47.0,95,82,61,30.02,29.76,22,6,22,0.00
2013-6-14,68.7,57.3,47.4,53.0,48.3,39.3,93,74,36,30.06,29.79,15,3,15,0.00
2013-6-15,61.3,56.1,50.5,55.4,49.5,43.9,95,79,57,29.86,29.68,21,5,21,0.24
2013-6-16,64.8,55.9,51.8,53.2,49.6,47.9,88,80,61,29.95,29.86,12,3,12,0.01
2013-6-17,68.8,60.6,54.6,53.2,51.0,48.5,86,72,55,29.96,29.92,12,2,15,0.00
2013-6-18,70.5,63.3,55.0,62.8,57.1,50.8,91,81,69,29.97,29.90,10,1,10,0.00
2013-6-19,79.8,67.5,60.0,62.7,60.1,57.0,95,79,50,29.97,29.92,7,0,7,0.00
2013-6-20,70.8,65.1,59.8,62.4,59.6,56.7,91,83,72,29.96,29.77,9,2,13,0.00
2013-6-21,68.8,61.5,56.8,64.6,57.9,54.5,94,88,74,29.86,29.75,10,2,10,0.17
2013-6-22,61.3,57.1,52.6,58.8,53.6,50.4,98,88,77,29.85,29.64,18,6,23,0.19
2013-6-23,62.4,57.3,52.1,54.4,52.4,47.7,95,84,71,30.01,29.64,20,5,20,0.08
2013-6-24,62.9,55.4,49.8,48.1,46.5,44.5,86,73,54,30.29,30.00,12,2,12,0.00
2013-6-25,69.3,59.4,49.3,49.7,46.6,43.0,85,64,42,30.41,30.29,6,0,6,0.00
2013-6-26,71.2,61.2,50.9,54.0,49.6,45.9,88,67,47,30.43,30.35,9,1,9,0.00
2013-6-27,67.0,57.7,50.6,53.6,50.9,47.4,95,79,58,30.38,30.17,10,1,10,0.05
2013-6-28,68.5,60.5,53.4,63.0,58.1,52.0,98,92,82,30.17,30.03,12,2,12,0.06
2013-6-29,71.6,62.5,54.2,58.0,50.6,46.8,89,67,45,30.24,30.06,11,1,11,0.00
2013-6-30,78.3,66.3,57.4,60.8,56.5,51.7,95,73,44,30.24,30.05,15,3,15,0.00
2013-7-1,68.4,61.1,55.0,53.3,50.9,48.9,89,70,51,30.06,29.98,13,2,13,0.00
2013-7-2,63.2,58.1,51.7,55.3,51.7,48.7,91,80,63,29.98,29.65,15,2,15,0.02
2013-7-3,69.2,61.7,57.5,60.7,56.6,54.2,97,84,66,30.00,29.60,11,2,11,0.02
2013-7-4,75.0,63.5,54.0,62.8,56.7,51.5,97,80,58,30.25,30.00,13,2,13,0.00
2013-7-5,82.5,67.5,53.5,59.3,54.5,51.3,94,66,38,30.41,30.25,7,1,10,0.00
2013-7-6,86.8,70.8,56.1,61.8,56.0,51.8,88,63,35,30.41,30.33,11,1,11,0.00
2013-7-7,85.8,72.5,60.7,61.4,58.3,52.8,91,64,35,30.49,30.40,13,1,13,0.00
2013-7-8,82.2,68.6,57.8,62.8,57.4,53.0,89,69,46,30.52,30.42,12,1,12,0.00
2013-7-9,79.8,66.4,51.8,55.2,49.3,41.8,92,59,32,30.44,30.26,12,1,12,0.00
2013-7-10,74.3,63.9,52.6,59.6,53.5,46.0,85,70,52,30.29,30.24,15,1,15,0.00
2013-7-11,72.8,60.8,51.7,52.5,48.8,45.7,85,66,45,30.30,30.23,12,1,12,0.00
2013-7-12,79.3,63.8,51.0,59.0,54.2,48.3,91,73,49,30.30,30.21,8,0,8,0.00
2013-7-13,88.0,74.3,60.0,66.3,61.1,56.5,90,66,43,30.23,30.19,11,0,11,0.00
2013-7-14,84.2,73.8,64.3,64.6,59.8,53.1,85,64,40,30.23,30.16,11,0,11,0.00
2013-7-15,89.0,74.4,63.1,59.0,49.0,38.2,70,44,22,30.22,30.16,7,0,7,0.00
2013-7-16,90.2,75.0,62.5,62.7,57.6,53.2,83,58,31,30.20,30.14,8,0,8,0.00
2013-7-17,91.3,76.7,63.6,60.5,57.5,54.5,77,53,31,30.25,30.17,12,1,12,0.00
2013-7-18,84.6,72.9,62.3,60.2,57.3,54.8,80,60,39,30.30,30.24,11,1,11,0.00
2013-7-19,85.8,71.6,58.8,60.9,56.0,50.3,75,59,39,30.29,30.19,16,2,16,0.00
2013-7-20,73.5,66.5,60.1,61.2,58.9,55.1,92,77,64,30.24,30.15,17,2,17,0.00
2013-7-21,81.8,68.7,60.8,63.1,59.4,54.2,89,74,51,30.17,30.02,14,2,14,0.00
2013-7-22,93.8,76.2,60.8,66.2,61.6,58.5,94,65,35,30.04,29.92,13,1,13,0.01
2013-7-23,85.7,74.1,65.9,73.0,64.5,59.8,91,73,56,29.94,29.86,11,2,11,0.09
2013-7-24,82.2,68.9,58.9,61.5,58.7,55.9,91,72,45,29.95,29.90,11,2,11,0.00
2013-7-25,79.7,68.6,61.6,66.7,60.9,56.8,97,78,50,29.92,29.85,12,2,12,0.31
2013-7-26,81.8,68.5,56.5,60.1,56.3,52.8,94,68,44,29.91,29.83,9,1,9,0.00
2013-7-27,87.2,68.9,57.9,66.9,57.2,51.9,97,70,36,29.85,29.55,15,1,15,0.20
2013-7-28,75.5,65.6,58.0,61.8,58.1,55.5,97,78,53,29.77,29.56,16,4,16,0.12
2013-7-29,73.8,64.3,57.8,61.8,58.6,54.2,95,83,58,29.95,29.76,17,3,17,0.23
2013-7-30,70.0,62.3,58.0,66.8,60.2,56.9,98,93,80,29.96,29.84,10,2,10,0.32
2013-7-31,73.8,65.9,60.6,65.4,61.3,57.4,96,86,73,29.98,29.93,18,3,18,0.03
2013-8-1,93.0,77.8,62.1,68.0,63.7,59.5,95,66,34,29.93,29.67,21,3,21,0.00
2013-8-2,78.9,68.8,61.7,64.4,59.8,54.8,93,75,49,29.80,29.72,14,3,14,0.02
2013-8-3,74.5,65.1,58.2,59.7,56.9,54.3,96,76,52,30.08,29.77,16,3,16,0.09
2013-8-4,74.2,65.5,58.4,58.7,56.5,53.0,93,74,51,30.10,30.02,14,3,14,0.00
2013-8-5,74.7,65.1,58.3,62.6,58.7,55.4,97,81,57,30.02,29.76,18,2,18,0.41
2013-8-6,73.3,62.2,51.3,57.6,52.5,48.9,98,74,45,30.03,29.89,7,0,7,0.01
2013-8-7,72.7,63.9,57.1,56.5,52.2,48.2,93,68,46,30.03,29.91,11,1,11,0.00
2013-8-8,79.2,65.6,52.2,55.8,51.6,48.4,89,63,39,30.12,30.03,10,1,11,0.00
2013-8-9,75.8,65.6,59.9,63.0,55.7,49.2,96,72,42,30.17,30.01,12,2,12,0.02
2013-8-10,73.0,62.9,55.0,52.9,50.1,47.1,82,64,44,30.19,30.12,14,1,14,0.00
2013-8-11,73.1,64.5,59.1,58.3,52.8,48.1,88,67,44,30.12,29.99,16,2,16,0.00
2013-8-12,69.2,61.0,54.7,54.3,49.9,44.2,89,69,43,30.08,29.99,12,1,12,0.00
2013-8-13,68.5,58.5,50.2,57.0,50.8,46.8,94,77,48,30.20,30.08,12,1,12,0.01
2013-8-14,72.8,61.3,50.4,60.0,54.9,49.0,97,81,53,30.22,30.14,11,2,11,0.02
2013-8-15,72.7,65.4,61.2,67.4,62.1,59.2,97,89,70,30.14,29.99,19,2,19,0.12
2013-8-16,74.5,65.1,61.5,65.3,61.8,58.8,96,89,72,30.00,29.92,10,2,10,0.06
2013-8-17,67.6,61.4,56.3,60.8,57.6,55.4,98,88,69,29.97,29.71,19,4,19,0.04
2013-8-18,73.6,65.1,59.2,61.8,57.1,52.1,97,77,54,29.89,29.70,12,3,12,0.03
2013-8-19,73.2,62.3,51.9,54.5,50.7,48.7,92,68,45,30.30,29.89,10,1,10,0.00
2013-8-20,77.8,64.5,53.3,54.3,51.4,48.2,89,65,40,30.36,30.29,7,1,7,0.00
2013-8-21,79.2,66.1,54.1,59.1,54.5,51.6,93,69,41,30.30,30.13,10,1,10,0.01
2013-8-22,73.0,65.4,61.0,66.7,62.4,59.0,98,90,79,30.15,30.05,10,1,10,0.11
2013-8-23,82.5,69.4,61.1,63.4,60.5,56.7,97,76,45,30.05,29.85,15,4,15,0.01
2013-8-24,66.4,62.3,56.1,63.1,60.3,54.6,97,93,82,29.86,29.80,8,0,8,0.51
2013-8-25,74.8,63.3,53.7,64.4,58.3,52.6,98,85,59,30.04,29.81,14,1,14,0.29
2013-8-26,78.7,66.6,59.4,63.6,57.0,50.0,94,74,44,30.09,30.03,13,1,13,0.00
2013-8-27,75.1,63.4,53.7,59.7,53.3,47.6,98,72,44,30.12,30.04,7,0,7,0.00
2013-8-28,78.9,64.1,53.9,56.6,53.2,46.7,97,71,40,30.22,30.12,8,0,8,0.00
2013-8-29,75.5,65.0,56.4,58.2,56.2,53.8,95,75,50,30.18,30.12,11,1,11,0.00
2013-8-30,75.3,65.6,58.0,61.4,58.7,56.0,95,80,56,30.13,30.03,14,2,14,0.00
2013-8-31,69.1,61.2,54.0,59.6,48.1,42.6,94,64,40,30.39,30.11,12,1,12,0.00
2013-9-1,70.7,59.1,49.2,52.9,48.3,43.7,86,69,45,30.44,30.32,11,2,11,0.00
2013-9-2,78.2,63.9,50.9,60.3,55.5,49.2,95,76,53,30.35,30.28,9,1,9,0.00
2013-9-3,78.0,67.2,57.5,62.8,59.3,55.7,96,77,56,30.35,30.26,6,0,6,0.00
2013-9-4,85.1,70.0,58.5,63.7,60.2,55.7,95,74,40,30.26,29.99,13,2,13,0.00
2013-9-5,85.5,70.3,57.6,64.2,59.3,53.1,97,71,42,29.99,29.75,6,0,6,0.00
2013-9-6,63.4,58.9,54.7,58.8,54.0,50.2,95,84,69,29.83,29.70,10,1,10,0.07
2013-9-7,65.8,57.2,50.8,52.0,49.2,46.1,90,76,54,30.03,29.81,14,2,14,0.00
2013-9-8,61.1,53.2,48.0,53.7,48.8,46.2,94,86,62,30.07,30.03,13,1,13,0.17
2013-9-9,56.9,51.5,47.2,55.6,50.2,45.9,97,95,92,30.05,29.97,13,0,13,0.24
2013-9-10,62.2,53.7,47.2,52.8,48.9,46.1,96,85,63,30.15,30.04,11,1,11,0.02
2013-9-11,61.6,56.1,53.0,54.2,51.0,47.8,97,83,67,30.17,30.10,13,1,13,0.09
2013-9-12,67.9,58.7,53.8,58.9,55.8,52.9,98,91,71,30.11,30.06,6,0,6,0.07
2013-9-13,63.1,60.5,53.4,62.8,59.8,52.4,99,98,95,30.06,29.88,9,0,9,0.84
2013-9-14,56.5,51.7,47.6,52.7,49.6,46.5,98,93,81,30.07,29.88,11,0,11,0.09
2013-9-15,58.9,51.7,43.2,58.2,49.3,42.3,99,92,66,30.06,29.53,17,3,17,0.13
2013-9-16,57.9,50.7,44.9,48.9,43.2,40.4,91,76,56,29.63,29.56,18,3,18,0.01
2013-9-17,55.2,50.8,44.8,54.6,47.8,41.8,98,90,74,29.63,29.34,11,2,11,0.18
2013-9-18,60.3,53.6,49.2,53.2,48.9,44.5,97,85,66,29.86,29.38,3,1,12,0.00
2013-9-19,60.4,52.3,44.4,59.5,50.1,42.8,98,92,78,29.89,29.73,16,2,16,0.04
2013-9-20,67.2,56.0,48.9,53.8,50.6,47.5,96,83,61,30.18,29.86,8,1,8,0.00
2013-9-21,64.4,57.6,49.5,61.1,55.0,47.8,96,91,85,30.30,30.17,9,1,9,0.00
2013-9-22,67.5,62.1,58.6,62.5,60.2,57.5,98,93,83,30.37,30.29,6,1,6,0.01
2013-9-23,65.4,60.3,56.0,60.5,58.1,54.6,98,93,81,30.33,30.11,6,0,6,0.00
2013-9-24,74.7,60.4,52.0,63.1,57.0,51.5,99,90,62,30.11,29.92,7,0,7,0.02
2013-9-25,71.0,62.1,56.7,62.0,58.4,55.7,98,88,70,29.92,29.82,6,0,6,0.01
2013-9-26,67.7,59.2,53.7,57.9,53.0,49.9,94,81,55,30.06,29.90,12,1,12,0.00
2013-9-27,67.6,56.0,50.3,52.8,50.3,47.9,94,82,59,30.05,29.92,15,3,15,0.00
2013-9-28,66.6,58.6,53.2,58.2,53.1,49.1,94,83,62,29.92,29.73,20,4,20,0.00
2013-9-29,66.0,59.0,55.1,55.5,53.1,51.7,91,81,67,29.74,29.70,17,3,17,0.00
2013-9-30,68.0,59.3,53.6,56.3,53.1,50.1,92,80,60,29.78,29.68,16,3,16,0.00
2013-10-1,62.9,57.5,52.7,55.9,52.7,50.1,94,84,71,29.82,29.75,20,4,20,0.00
2013-10-2,68.1,60.3,55.2,62.0,57.1,52.5,97,89,78,29.88,29.78,14,3,17,0.04
2013-10-3,64.8,60.4,56.3,63.3,59.0,55.7,98,95,90,29.87,29.70,17,3,17,0.06
2013-10-4,68.8,63.7,58.9,63.3,60.2,56.9,97,89,73,29.93,29.67,18,3,20,0.01
2013-10-5,66.0,59.0,54.4,58.2,55.6,52.5,98,89,71,30.24,29.93,6,0,6,0.00
2013-10-6,67.3,56.5,47.8,55.0,51.1,46.5,97,83,59,30.29,30.24,8,0,8,0.00
2013-10-7,67.0,57.1,50.1,59.1,54.0,49.4,99,90,72,30.30,30.24,10,1,10,0.01
2013-10-8,66.1,60.3,55.8,60.1,57.6,54.7,98,91,78,30.27,30.22,11,2,11,0.00
2013-10-9,61.3,54.7,45.2,55.7,49.7,39.8,96,84,69,30.23,29.97,14,2,14,0.00
2013-10-10,53.5,47.8,44.0,43.6,40.2,38.2,84,75,62,30.11,29.99,16,2,16,0.00
2013-10-11,55.4,51.7,46.3,52.8,48.6,40.4,95,89,80,30.13,29.96,12,1,12,0.13
2013-10-12,57.2,52.7,48.6,53.4,49.1,46.1,96,88,70,30.12,29.97,8,2,15,0.09
2013-10-13,52.6,49.7,46.2,51.8,48.7,45.1,98,96,93,29.99,29.75,5,1,10,0.37
2013-10-14,50.7,48.3,47.3,49.5,47.4,46.3,98,97,93,29.76,29.70,12,2,12,0.28
2013-10-15,57.6,49.8,46.3,51.5,47.9,45.8,98,94,76,29.95,29.74,10,1,10,0.00
2013-10-16,58.8,50.3,42.7,57.2,48.9,41.9,99,95,83,29.97,29.69,17,3,17,0.17
2013-10-17,64.0,56.3,51.6,56.4,53.0,49.8,96,89,74,30.00,29.79,14,2,14,0.00
2013-10-18,63.0,56.4,51.5,58.1,54.2,50.1,99,92,79,30.01,29.77,17,3,17,0.01
2013-10-19,62.8,58.0,54.9,61.1,56.4,53.1,98,95,89,29.77,29.63,11,2,11,0.10
2013-10-20,62.4,55.8,53.1,57.5,54.3,51.5,98,95,84,29.73,29.63,14,2,14,0.50
2013-10-21,62.9,59.1,54.6,58.9,57.0,53.5,98,93,86,29.74,29.60,17,3,17,0.04
2013-10-22,63.7,60.8,55.5,60.7,58.3,54.1,97,92,86,29.60,29.32,16,3,16,0.28
2013-10-23,62.2,56.5,46.5,57.2,52.3,44.8,97,86,64,29.85,29.24,19,4,19,0.09
2013-10-24,65.1,53.3,44.5,55.7,50.0,43.7,98,89,68,29.98,29.82,14,2,14,0.01
2013-10-25,64.3,59.3,55.1,60.6,56.3,53.4,98,90,80,29.82,29.59,19,4,19,0.08
2013-10-26,61.6,58.6,57.0,57.1,55.4,53.2,95,89,81,29.69,29.46,19,5,19,0.04
2013-10-27,60.8,55.6,50.5,55.9,51.5,48.5,98,87,68,29.46,29.21,28,5,28,0.41
2013-10-28,59.7,52.7,46.7,59.1,49.7,43.4,99,89,77,29.57,28.86,36,6,36,0.58
2013-10-29,54.2,46.8,40.5,46.8,42.6,38.6,96,86,64,30.05,29.58,13,3,13,0.00
2013-10-30,56.9,48.1,37.6,52.1,44.6,36.8,98,88,72,30.17,30.05,13,2,13,0.02
2013-10-31,54.7,53.8,52.5,53.8,51.9,49.7,98,94,87,30.06,29.92,14,3,14,0.07
2013-11-1,55.9,53.6,51.5,54.1,51.9,50.1,97,94,89,29.92,29.54,13,2,13,0.20
2013-11-2,58.9,52.2,48.7,53.7,48.3,41.8,98,87,70,29.57,29.36,24,4,24,0.02
2013-11-3,53.2,47.6,44.1,44.7,42.1,39.8,97,82,67,29.56,29.05,24,5,24,0.39
2013-11-4,51.4,43.8,38.5,44.8,40.6,36.9,97,89,72,29.49,29.00,12,1,12,0.15
2013-11-5,53.1,46.3,38.6,51.0,43.4,37.1,99,90,75,29.50,29.23,18,3,18,0.29
2013-11-6,58.6,52.7,47.8,56.2,51.0,43.3,98,94,84,29.53,29.44,20,3,20,0.13
2013-11-7,57.5,48.6,43.3,56.1,45.9,41.4,96,90,76,29.77,29.50,15,1,15,0.02
2013-11-8,51.2,44.1,40.1,50.0,43.2,39.0,98,96,93,29.77,29.58,7,1,7,0.34
2013-11-9,45.5,41.1,36.8,45.0,40.5,36.3,99,98,96,29.76,29.60,7,1,7,0.09
2013-11-10,49.6,42.5,37.4,42.2,38.9,35.8,98,88,63,30.26,29.61,11,1,11,0.02
2013-11-11,54.9,48.5,37.5,54.6,47.6,36.2,99,97,91,30.25,30.13,11,2,11,0.22
2013-11-12,54.9,49.7,42.4,54.6,47.6,39.7,99,93,81,30.50,30.14,10,1,10,0.05
2013-11-13,49.7,42.8,34.8,44.5,39.6,33.5,97,89,78,30.56,30.19,8,1,8,0.00
2013-11-14,49.1,45.0,39.2,45.0,40.8,35.9,95,85,72,30.41,30.10,11,2,11,0.03
2013-11-15,49.4,42.4,38.6,40.9,37.0,33.9,91,81,71,30.53,30.41,6,0,6,0.00
2013-11-16,47.1,41.3,33.4,44.3,39.8,32.4,97,94,87,30.52,30.37,7,0,7,0.00
2013-11-17,49.5,47.5,45.1,47.5,45.9,43.2,97,94,90,30.37,30.01,5,0,5,0.02
2013-11-18,47.7,46.4,42.9,47.1,45.6,41.0,99,97,93,30.01,29.75,10,1,10,0.02
2013-11-19,43.6,37.5,29.8,40.9,33.2,27.5,95,85,63,30.05,29.78,11,1,11,0.00
2013-11-20,43.3,36.3,28.6,42.0,34.8,26.8,97,94,90,30.03,29.39,13,2,13,0.20
2013-11-21,46.2,41.1,37.4,40.2,37.7,35.4,96,88,72,29.92,29.41,16,1,16,0.01
2013-11-22,45.8,40.6,37.4,39.7,36.8,34.1,95,86,72,30.16,29.92,9,1,10,0.00
2013-11-23,44.9,41.0,36.7,40.7,38.4,35.4,96,91,80,30.31,30.16,9,0,9,0.00
2013-11-24,45.9,42.9,39.4,43.6,39.8,37.0,94,89,81,30.56,30.31,7,0,7,0.00
2013-11-25,44.4,41.3,38.9,39.2,38.1,36.8,94,88,82,30.68,30.56,6,0,7,0.00
2013-11-26,45.8,40.8,35.2,40.2,36.3,32.6,91,84,73,30.70,30.57,5,0,5,0.00
2013-11-27,50.9,46.4,42.0,48.8,44.9,39.8,97,95,91,30.56,30.48,3,0,3,0.02
2013-11-28,49.7,47.3,45.9,46.7,45.6,44.5,97,94,88,30.57,30.51,3,0,3,0.00
2013-11-29,50.1,46.2,42.5,44.9,42.1,38.6,96,86,74,30.51,30.16,13,2,13,0.00
2013-11-30,47.7,42.7,36.0,41.9,38.0,33.6,92,84,79,30.45,30.17,8,1,10,0.00
2013-12-1,49.2,42.7,34.5,44.5,40.2,32.9,95,91,82,30.56,30.43,4,0,4,0.00
2013-12-2,49.6,45.9,42.5,43.9,42.3,40.1,95,87,75,30.57,30.45,6,0,6,0.00
2013-12-3,44.1,42.5,40.9,41.2,37.6,35.8,91,83,79,30.45,30.31,7,0,7,0.00
2013-12-4,47.3,41.5,33.0,44.7,37.7,31.4,95,87,66,30.48,30.29,9,1,9,0.00
2013-12-5,50.8,40.8,31.2,45.5,35.8,29.9,96,83,64,30.46,30.00,26,4,26,0.04
2013-12-6,47.7,42.0,36.4,41.7,36.2,31.2,95,80,70,30.37,30.22,13,2,13,0.00
2013-12-7,47.4,44.3,42.0,44.4,42.7,40.7,96,94,89,30.34,30.26,11,2,11,0.00
2013-12-8,51.9,45.6,40.7,47.0,43.5,39.7,97,93,82,30.31,30.23,16,3,16,0.02
2013-12-9,51.9,45.1,41.3,47.7,43.5,40.2,99,94,84,30.41,30.30,10,2,10,0.02
2013-12-10,49.6,42.6,37.0,46.8,41.2,36.2,99,95,88,30.46,30.40,6,0,6,0.01
2013-12-11,41.9,37.7,32.5,41.6,37.1,32.0,99,97,94,30.44,30.30,5,0,5,0.02
2013-12-12,47.2,42.6,37.6,46.4,42.0,36.3,99,98,94,30.30,30.19,7,1,7,0.01
2013-12-13,53.4,49.8,44.4,50.2,47.9,42.8,97,93,83,30.19,30.02,11,2,11,0.06
2013-12-14,51.7,45.5,37.2,48.7,43.2,36.2,97,92,79,30.29,30.04,23,4,23,0.05
2013-12-15,53.7,51.3,46.1,53.0,50.4,44.5,98,97,93,30.16,29.98,20,4,20,0.28
2013-12-16,54.9,51.6,43.3,53.4,50.6,42.0,98,96,92,30.12,29.92,22,4,22,0.35
2013-12-17,44.6,41.9,39.6,44.0,40.9,38.8,98,97,94,30.27,29.97,7,1,7,0.19
2013-12-18,49.9,46.5,41.4,48.6,45.1,40.9,99,95,89,29.97,29.28,24,4,24,0.32
2013-12-19,48.3,42.5,37.2,46.7,39.7,36.2,96,90,72,29.85,29.30,21,3,21,0.18
2013-12-20,50.9,42.9,34.8,46.8,40.0,34.0,97,90,79,30.17,29.85,21,4,21,0.02
2013-12-21,52.8,50.5,47.0,51.3,48.8,42.7,97,94,83,30.04,29.69,24,7,24,0.34
2013-12-22,49.2,45.0,39.5,45.0,40.8,36.5,93,85,67,29.91,29.70,25,5,25,0.02
2013-12-23,52.9,47.7,39.4,51.3,45.7,36.4,96,93,89,29.90,28.84,33,6,33,0.69
2013-12-24,52.5,45.8,41.2,51.0,43.2,39.1,96,91,81,28.97,28.77,28,5,28,0.53
2013-12-25,44.8,40.1,37.8,41.2,38.3,36.4,97,93,83,29.17,28.91,12,2,12,0.06
2013-12-26,45.1,39.6,37.9,43.1,38.9,37.4,98,97,85,29.49,29.16,23,2,23,0.02
2013-12-27,51.4,48.0,44.1,50.3,42.5,38.0,97,81,68,29.24,28.99,26,7,26,0.10
2013-12-28,47.1,40.9,36.2,39.8,36.9,34.6,95,86,73,30.20,29.24,14,2,14,0.00
2013-12-29,45.9,38.2,31.6,43.0,36.0,30.6,98,92,80,30.08,29.70,11,2,11,0.01
2013-12-30,50.4,47.2,42.8,48.1,44.6,41.1,95,91,82,30.00,29.65,26,5,26,0.19
2013-12-31,50.8,45.6,41.8,48.0,43.9,39.4,97,94,88,29.84,29.53,19,3,19,0.25
2014-1-1,51.3,47.6,43.2,50.0,45.9,41.3,97,94,88,29.57,29.03,29,5,29,0.39
2014-1-2,50.7,47.3,42.3,48.2,44.6,41.0,96,91,79,29.45,29.05,17,4,17,0.11